DW6083 Weather Reports


Display with metric or nautical units.
time (UTC)temp
F
wind
direction
speed
MPH
gust
MPH
rain 1hr
in
rain 24hr
in
rain mn
in
humidity
%
barometer
mb
20260502163106 56 40 0.0 0.0 0.00 0.00 0.00 1 1012.5
20260502151539 59 338 0.0 0.0 0.00 0.00 0.00 1 1012.2
20260502130106 57 146 0.0 0.0 0.00 0.00 0.00 1 1011.5
20260502123110 56 104 0.0 0.0 0.00 0.00 0.00 1 1011.8
20260502121543 56 104 0.0 0.0 0.00 0.00 0.00 1 1012.6
20260502114534 56 0.0 0.0 0.00 0.00 0.00 1011.9
20260502113039 0 0.0 0.0 0.00 0.00 0.00 1011.2
20260502111532 0 0.0 0.0 0.00 0.00 0.00 1010.7
20260502110031 0 0.0 0.0 0.00 0.00 0.00 1010.7
20260502104533 0 0.0 0.0 0.00 0.00 0.00 1010.6
20260502103030 0 0.0 0.0 0.00 0.00 0.00 1010.6
20260502101526 0 0.0 0.0 0.00 0.00 0.00 1010.5
20260502091508 56 126 0.0 0.0 0.00 0.00 0.00 1 1011.4
20260502071536 56 126 0.0 0.0 0.00 0.00 0.00 1 1011.5
20260502070033 56 126 0.0 0.0 0.00 0.00 0.00 1 1011.4
20260502064529 56 126 0.0 0.0 0.00 0.00 0.00 1 1011.5
20260502063022 56 126 0.0 0.0 0.00 0.00 0.00 1 1011.3
20260502061520 56 126 0.0 0.0 0.00 0.00 0.00 1 1011.3
20260502060014 57 126 0.0 0.0 0.00 0.00 0.00 1 1011.4
20260502054509 57 126 0.0 0.0 0.00 0.00 0.00 1 1011.6
20260502053005 57 126 0.0 0.0 0.00 0.00 0.00 1 1011.8
20260502051609 57 126 0.0 0.0 0.00 0.00 0.00 1 1012.0
20260502050056 57 126 0.0 0.0 0.00 0.00 0.00 1 1012.1
20260502044559 57 126 0.0 0.0 0.00 0.00 0.00 1 1012.1
20260502043048 57 126 0.0 0.0 0.00 0.00 0.00 1 1012.0
20260502041544 57 126 0.0 0.0 0.00 0.00 0.00 1 1012.1
20260502040038 57 126 0.0 0.0 0.00 0.00 0.00 1 1012.5
20260502034534 58 126 0.0 0.0 0.00 0.00 0.00 1 1012.6
20260502033029 58 126 0.0 0.0 0.00 0.00 0.00 1 1012.6
20260502031525 58 126 0.0 0.0 0.00 0.00 0.00 1 1012.5
20260502030023 58 126 0.0 0.0 0.00 0.00 0.00 1 1012.4
20260502024523 59 126 0.0 0.0 0.00 0.00 0.00 1 1012.3
20260502023016 59 126 0.0 0.0 0.00 0.00 0.00 1 1012.3
20260502021507 60 126 0.0 0.0 0.00 0.00 0.00 1 1012.4
20260502020004 60 126 0.0 0.0 0.00 0.00 0.00 1 1012.3
20260502014506 60 126 0.0 0.0 0.00 0.00 0.00 1 1012.1
20260502013006 61 126 0.0 0.0 0.00 0.00 0.00 1 1012.3
20260502011601 61 126 0.0 0.0 0.00 0.00 0.00 1 1012.2
20260502010056 62 126 0.0 0.0 0.00 0.00 0.00 2 1011.9
20260502004551 63 126 0.0 0.0 0.00 0.00 0.00 10 1011.6
20260502003050 64 126 0.0 0.0 0.00 0.00 0.00 20 1011.4
20260502001552 64 126 0.0 0.0 0.00 0.00 0.00 26 1011.3
20260502000049 65 126 0.0 0.0 0.00 0.00 0.00 31 1011.3
20260501234543 66 126 0.0 0.0 0.00 0.00 0.00 42 1011.1
20260501233042 66 126 0.0 0.0 0.00 0.00 0.00 45 1011.0
20260501231540 67 126 0.0 0.0 0.00 0.00 0.00 48 1010.7
20260501230037 67 126 0.0 0.0 0.00 0.00 0.00 57 1010.7
20260501224537 67 126 0.0 0.0 0.00 0.00 0.00 59 1011.1
20260501223034 68 126 0.0 0.0 0.00 0.00 0.00 59 1011.1
20260501221533 68 126 0.0 0.0 0.00 0.00 0.00 59 1011.1
20260501220039 68 128 0.0 0.0 0.00 0.00 0.00 59 1011.4
20260501214540 69 128 0.0 0.0 0.00 0.00 0.00 59 1011.5
20260501213029 68 128 0.0 0.0 0.00 0.00 0.00 59 1011.5
20260501211529 68 128 0.0 0.0 0.00 0.00 0.00 59 1011.6
20260501210027 68 128 0.0 0.0 0.00 0.00 0.00 58 1011.8
20260501204527 68 128 0.0 0.0 0.00 0.00 0.00 58 1011.6
20260501203027 68 128 0.0 0.0 0.00 0.00 0.00 59 1011.6
20260501201526 68 128 0.0 0.0 0.00 0.00 0.00 58 1011.8
20260501200034 68 128 0.0 0.0 0.00 0.00 0.00 57 1012.2
20260501194533 67 125 0.0 0.0 0.00 0.00 0.00 59 1012.4
20260501193024 67 125 0.0 0.0 0.00 0.00 0.00 58 1012.7
20260501191526 67 123 0.0 0.0 0.00 0.00 0.00 59 1012.7
20260501190038 67 118 0.0 6.0 0.00 0.00 0.00 59 1012.9
20260501184521 67 99 2.0 6.0 0.00 0.00 0.00 59 1013.1
20260501183021 68 95 2.0 6.0 0.00 0.00 0.00 57 1013.3
20260501181523 67 149 0.0 0.0 0.00 0.00 0.00 55 1013.6
20260501180027 67 141 2.0 5.0 0.00 0.00 0.00 57 1013.4